Regional Weather Roundup
Issued by NWS

Home | Current Version | Previous Version | Graphics & Text | Print | Product List | Glossary On
Versions: 1 2 3 4 5 6 7 8 9 10 11 12 13 14 15 16 17 18 19 20 21 22 23 24 25 26 27 28 29 30 31 32 33 34 35 36 37 38 39 40 41 42 43 44 45 46 47 48 49 50
000
ASUS43 KTOP 300559
RWRKS

WEATHER ROUNDUP FOR KANSAS
NATIONAL WEATHER SERVICE GOODLAND KS
100 AM CDT SAT APR 30 2016

NOTE:  "FAIR" INDICATES FEW OR NO CLOUDS BELOW 12,000 FEET WITH NO
SIGNIFICANT WEATHER AND/OR OBSTRUCTIONS TO VISIBILITY.

KSZ001>006-013>018-027>032-041>047-300700-
NORTHWEST KANSAS

CITY           SKY/WX    TMP DP  RH WIND       PRES   REMARKS
GOODLAND       CLOUDY    32  31  96 NW13      29.83F FOG     WCI  22
                                      6HR PCP:  0.12;

HAYS           CLOUDY    45  36  70 N13       29.76F
HILL CITY      LGT RAIN  42  40  92 N13       29.79F
6HR MIN TEMP:  42; 6HR MAX TEMP:  45; 6HR PCP:  0.65;

RUSSELL        CLOUDY    45  44  97 N12       29.73F
6HR MIN TEMP:  45; 6HR MAX TEMP:  47; 6HR PCP:  0.67;

$$

KSZ061>065-074>080-084>089-300700-
SOUTHWEST KANSAS

CITY           SKY/WX    TMP DP  RH WIND       PRES   REMARKS
DODGE CITY     CLOUDY    39  38  96 NW12      29.78F WCI  32
6HR MIN TEMP:  39; 6HR MAX TEMP:  44; 6HR PCP:  0.07;

ELKHART          N/A     38  35  89 NW9         N/A
GARDEN CITY    CLOUDY    38  36  92 NW13      29.80F WCI  30
6HR MIN TEMP:  37; 6HR MAX TEMP:  40; 6HR PCP: TRACE;

GREAT BEND     CLOUDY    46  39  76 N12       29.74F
LIBERAL        CLOUDY    41  36  81 NW13      29.82F
$$

KSZ066>073-081>083-090>101-300700-
SOUTHEAST KANSAS

CITY           SKY/WX    TMP DP  RH WIND       PRES   REMARKS
CHANUTE        CLOUDY    61  57  87 SE12      29.65F
6HR MIN TEMP:  57; 6HR MAX TEMP:  64; 6HR PCP:  0.02;

COFFEYVILLE    CLOUDY    62  60  93 SE6       29.65F
6HR MIN TEMP:  60; 6HR MAX TEMP:  63; 6HR PCP:  0.06;

HUTCHINSON     CLOUDY    52  51  97 NW10      29.70F FOG
6HR MIN TEMP:  50; 6HR MAX TEMP:  53; 6HR PCP:  0.03;

MEDICINE LODGE   N/A     48  47  96 NW12      29.72F
NEWTON         CLOUDY    52  46  82 CALM      29.69R
PARSONS        CLOUDY    62  60  93 VRB3      29.67F
6HR MIN TEMP:  59; 6HR MAX TEMP:  62; 6HR PCP:  0.01;

WICHITA INTL   CLOUDY    55  53  93 W9        29.68R FOG
6HR MIN TEMP:  55; 6HR MAX TEMP:  56; 6HR PCP: TRACE;

WICHITA JABRA  CLOUDY    54  54 100 CALM      29.66S
6HR MIN TEMP:  53; 6HR MAX TEMP:  54; 6HR PCP: TRACE;

WICHITA MCCONL DRIZZLE   55  54  94 NW6       29.66R
WINFIELD       CLOUDY    58  56  93 W6        29.66S
6HR MIN TEMP:  57; 6HR MAX TEMP:  58; 6HR PCP: TRACE;

$$

KSZ007>012-019>026-033>040-048>060-102>105-300700-
NORTHEAST KANSAS

CITY           SKY/WX    TMP DP  RH WIND       PRES   REMARKS
CONCORDIA      RAIN      47  46  97 N5        29.74S FOG
6HR MIN TEMP:  47; 6HR MAX TEMP:  49; 6HR PCP:  0.28;

EMPORIA        CLOUDY    55  54  96 E9        29.65F
6HR MIN TEMP:  52; 6HR MAX TEMP:  55; 6HR PCP:  0.21;

LAWRENCE       LGT RAIN  53  52  96 E14       29.71F
6HR MIN TEMP:  52; 6HR MAX TEMP:  53; 6HR PCP:  0.12;

MANHATTAN      LGT RAIN  52  48  86 E13       29.68F
6HR MIN TEMP:  51; 6HR MAX TEMP:  52; 6HR PCP:  0.08;

OLATHE IND     CLOUDY    56  55  97 E8        29.72F
6HR MIN TEMP:  53; 6HR MAX TEMP:  56; 6HR PCP:  0.08;

OLATHE EXE     CLOUDY    55  54  96 E6        29.72F
6HR MIN TEMP:  52; 6HR MAX TEMP:  55; 6HR PCP:  0.04;

SALINA         LGT RAIN  52  51  97 N9        29.71F FOG
6HR MIN TEMP:  50; 6HR MAX TEMP:  53; 6HR PCP:  0.09;

TOPEKA BILLARD LGT RAIN  53  51  93 E16       29.69F
6HR MIN TEMP:  52; 6HR MAX TEMP:  53; 6HR PCP:  0.20;

TOPEKA FORBES  LGT RAIN  54  51  90 E15       29.68F
6HR MIN TEMP:  53; 6HR MAX TEMP:  54; 6HR PCP:  0.15;

$$




USA.gov is the U.S. government's official web portal to all federal, state and local government web resources and services.